STARLINK-4149, 53290

Orbit data source: Space-Track

STARLINK-4149, 53290 is a payload satellite owned by SpaceX/Seattle (US) in LEO that was launched on Sun, 24 Jul 2022 UTC via an FALCON 9 launch vehicle from the Air Force Eastern Test Range (AFETR). Payload-class satellites include a variety of spacecraft equipped with specific instruments for various scientific and technological missions. These include communications satellites like Starlink; space stations such as the ISS; scientific satellites like the Hubble; Earth observation satellites from companies like Planet Labs, Umbra, and HawkEye 360; GPS; miniature CubeSats for education and research; and military/defense satellites.

Loading next visibility...
Identifier
53290, 2022-086BA
Orbit
LEO
Country
Flag of USUS
Related business
Manufacturer
SpaceX/Seattle
Mission
Operational Commercial Communications
Bus & Motor
STARLINK, Unknown motor
Mass
297 kg wet, ~275 kg dry
Launch date (UTC)
2022-07-24 (4 years ago)
Launch vehicle
FALCON 9
Launch site
Air Force Eastern Test Range (AFETR)
Object type
Payload
Rocket body
Debris
Shape & HBR
Box + 1 Pan, 10.1 m
Radar Cross Section
13.562 m², Large (>1 m²)

Expand to show TLE details & history
Last TLE update: 3 days ago

TLE from 3 days ago
0 STARLINK-4149
1 53290U 22086BA  26170.92639915  .00011878  00000-0  75385-3 0  9993
2 53290  53.2169  85.1286 0001779  83.0809 277.0386 15.09291047216627
Epoch: 2026-06-19T22:14Z
TLE epoch observation values (Epoch: 2026-06-19T22:14:00.886Z)
Latitude
-0°
Longitude
-156.52346°
Altitude
539.112 km
Speed
7.594 km/s
True Right ascension
05h 40m 30s
True Declination
0° 00' 00"
Sunlit
Object was in daylight at epoch
Visualization orbit readout
Latitude
Unknown
Longitude
Unknown
Altitude
Unknown
Speed
Unknown
Apparent Right ascension
Unknown
Apparent Declination
Unknown
Sunlit
N/A
Visualization observer readout
Local Sidereal Time
21:26:35
Azimuth
Unknown
Elevation
Unknown
Doppler factor
Unknown
Orbital elements
Apogee altitude
539.841 km
Perigee altitude
537.38 km
Semi-major axis
6,916.747 km
Eccentricity
0.00018
Inclination
53.2169°
RAAN
85.1286°
Arg. of periapsis
83.0809°
True anomaly
277.01837°
Mean anomaly
277.0386°
Eccentric anomaly
277.02848°
Mean motion
3.77303 °/min
Orbital period
95.41 mins
BSTAR
0.00075385
Loading maneuver chart data...
Computing Atmospheric mass density...
Loading historical data...
Loading historical data...
Loading historical data...
Loading historical data...
Loading historical data...
Loading historical data...
Loading historical data...

Documentation

Showing up to 5 results
|